Location: Bartshausen
(51.8454°N, 9.8167°E)
Time: 10:09:41
(UTC+00:00)

Iridium 4 Rocket - Pass Details

Date: 21 February 2026
Orbit: 579 x 887 km, 86.9° (Epoch: 8 March)

Event Time Altitude Azimuth Distance (km) Brightness Sun altitude
Rises 19:11:31 0° 353° (N) 3,012 6.8 -23.0°
Reaches altitude 10° 19:13:52 10° 350° (N) 2,051 6.0 -23.4°
Maximum altitude 19:18:16 58° 272° (W) 718 3.6 -24.0°
Enters shadow 19:21:33 16° 196° (SSW) 1,592 5.1 -24.5°
